Weather in Roman

Romania     46°56′16″N   26°55′20″E
temp.,
°C
wind,
m/s
gust,
m/s
humid.,
%
clouds,
%
prec.,
mm/h
press.,
hPa
HPBL,
m
14 april, wed
wed1400:00+12sw1563100 0.0 1014201
03:00+9n2278100 0.0 101474
06:00+8se1276100 0.0 101498
09:00+9sse3464100 0.0 1014579
12:00+12se4553100 0.0 10131269
15:00+11se4462100 0.1 10121367
18:00+9wsw3378100 0.5 1012397
21:00+6nnw5890100 3.2 1013430
15 april, thu
thu1500:00+4nw6990100 3.1 1013519
03:00+3nw61194100 5.0 1014505
06:00+2nw51197100 3.6 1014519
09:00+2nw61397100 7.2 1015616
12:00+3nw61295100 3.8 1016597
15:00+4nnw5991100 4.7 1016487
18:00+5nnw4888100 0.4 1016619
21:00+4nw41095100 1.1 1017700
16 april, fri
fri1600:00+3nw51197100 0.9 1017518
03:00+2nnw3799100 1.8 1017402
06:00+2wnw1598100 2.0 1016410
09:00+3wnw1497100 4.1 1017382
12:00+6wnw137887 0.4 1017686
15:00+10wnw1359100 0.5 10171275
18:00+10ne116296 0.1 1017811
21:00+7nne228270 0.3 101923
17 april, sat
sat1700:00+6se118457 0.1 102013
03:00+5se1187100 0.2 102018
06:00+5ne128999 0.0 102068
09:00+6ne118498 0.0 1021238
12:00+10e3466100 0.1 10201296
15:00+13se344992 0.1 10191684
18:00+13ese354680 0.0 10181845
21:00+9ne347059 0.0 101881
18 april, sun
sun1800:00+7ese237458 0.0 101949
03:00+6ese1182100 0.0 101915
06:00+6se118170 0.0 101916
09:00+9sse346927 0.0 1020651
12:00+11se4657100 0.0 10191650
15:00+12sse455898 0.1 10191339
18:00+10s3569100 0.0 1019791
21:00+8sw2380100 0.0 1020157